Alexandria, LA

9:07 PM CST on February 13, 2016 (GMT -0600)
Alexandria International

Weather History for KAEX - March, 2012

Change the Weather History Date:

Monday, March 19, 2012

  Actual Average Record
Temperature  
Mean Temperature 74 °F 60 °F  
Max Temperature 79 °F 72 °F 89 °F (1907)
Min Temperature 68 °F 48 °F 27 °F (1923)
Degree Days  
Heating Degree Days 0 6  
Month to date heating degree days 59 151  
Since 1 July heating degree days 1489 1816  
Cooling Degree Days 9 1  
Month to date cooling degree days 86 19  
Year to date cooling degree days 115 36  
Growing Degree Days 23 (Base 50)    
Moisture  
Dew Point 64 °F    
Average Humidity 75    
Maximum Humidity 90    
Minimum Humidity 60    
Precipitation  
Precipitation T in 0.15 in 4.09 in (1905)
Month to date precipitation 4.20 3.24  
Year to date precipitation 21.26 12.92  
Snow  
Snow 0.00 in - 0.00 in ()
Month to date snowfall 0.0  
Since 1 July snowfall 0.0  
Snow Depth 0.00 in    
Sea Level Pressure  
Sea Level Pressure 29.95 in    
Wind  
Wind Speed 13 mph (SSE)    
Max Wind Speed 25 mph    
Max Gust Speed 31 mph    
Visibility 10 miles    
Events Rain    
T = Trace of Precipitation, MM = Missing Value Source: NWS Daily Summary

Daily Weather History Graph

Daily Weather History Graph

Search for Another Location

Airport or City:

Trip Planner

Search our weather history database for the weather conditions in past years. The results will help you decide how hot, cold, wet, or windy it might be!

Date:

Astronomy

Mar. 19, 2012 Rise Set
Actual Time 7:14 AM CDT 7:21 PM CDT
Civil Twilight 6:50 AM CDT 7:45 PM CDT
Nautical Twilight 6:22 AM CDT 8:13 PM CDT
Astronomical Twilight 5:53 AM CDT 8:42 PM CDT
Moon 5:17 AM CDT (3/19) 4:57 PM CDT (3/19)
Length of Visible Light 12h 55m
Length of Day
12h 06m
Waning Crescent, 8% of the Moon is Illuminated
Mar 19
Waning Crescent
Mar 22
New
Mar 30
First Quarter
Apr 6
Full
Apr 13
Last Quarter

Hourly Weather History & Observations

Time (CDT) Temp. Dew Point Humidity Pressure Visibility Wind Dir Wind Speed Gust Speed Precip Events Conditions
12:53 AM 70.0 °F 64.9 °F 84% 30.02 in 10.0 mi SE 12.7 mph - N/A   Partly Cloudy
1:17 AM 69.8 °F 66.2 °F 88% 30.01 in 10.0 mi SE 11.5 mph 19.6 mph N/A   Mostly Cloudy
1:53 AM 69.1 °F 66.0 °F 90% 30.01 in 10.0 mi SE 13.8 mph - N/A   Overcast
2:53 AM 70.0 °F 66.0 °F 87% 30.01 in 10.0 mi SSE 11.5 mph - N/A   Overcast
3:53 AM 70.0 °F 64.9 °F 84% 30.00 in 10.0 mi SSE 8.1 mph - N/A   Overcast
4:53 AM 70.0 °F 64.9 °F 84% 30.00 in 10.0 mi South 8.1 mph - N/A   Overcast
5:24 AM 69.8 °F 64.4 °F 83% 29.98 in 10.0 mi SSE 10.4 mph - N/A   Mostly Cloudy
5:53 AM 70.0 °F 66.0 °F 87% 29.99 in 10.0 mi SSE 10.4 mph - N/A   Overcast
6:53 AM 70.0 °F 66.0 °F 87% 29.99 in 10.0 mi SSE 9.2 mph - N/A   Overcast
7:53 AM 70.0 °F 66.0 °F 87% 29.99 in 7.0 mi SE 10.4 mph - N/A   Overcast
8:53 AM 69.8 °F 66.2 °F 88% 29.98 in 7.0 mi SE 11.5 mph - N/A   Overcast
9:24 AM 69.8 °F 66.2 °F 88% 29.97 in 8.0 mi SE 15.0 mph - N/A   Overcast
9:53 AM 71.6 °F 66.2 °F 83% 29.96 in 8.0 mi SE 15.0 mph 25.3 mph N/A   Overcast
10:53 AM 73.0 °F 66.0 °F 79% 30.00 in 10.0 mi SSE 16.1 mph 24.2 mph N/A   Overcast
11:53 AM 75.0 °F 64.9 °F 71% 30.00 in 10.0 mi SSE 13.8 mph 19.6 mph N/A   Mostly Cloudy
12:53 PM 75.9 °F 64.0 °F 67% 29.99 in 10.0 mi SSE 13.8 mph 21.9 mph N/A   Mostly Cloudy
1:53 PM 75.0 °F 63.0 °F 66% 29.95 in 9.0 mi SSE 25.3 mph 31.1 mph N/A   Mostly Cloudy
2:53 PM 78.1 °F 64.0 °F 62% 29.94 in 9.0 mi SSE 23.0 mph 29.9 mph N/A   Scattered Clouds
3:53 PM 75.9 °F 64.0 °F 67% 29.92 in 10.0 mi SSE 16.1 mph 25.3 mph 0.00 in Rain Light Rain
4:53 PM 75.9 °F 64.0 °F 67% 29.88 in 10.0 mi SSE 17.3 mph 31.1 mph 0.00 in   Scattered Clouds
5:53 PM 77.0 °F 63.0 °F 62% 29.88 in 10.0 mi South 13.8 mph 23.0 mph N/A   Mostly Cloudy
6:53 PM 75.0 °F 62.1 °F 64% 29.88 in 10.0 mi South 10.4 mph 20.7 mph N/A   Partly Cloudy
7:53 PM 73.0 °F 62.1 °F 68% 29.88 in 10.0 mi SSE 15.0 mph 24.2 mph N/A   Clear
8:53 PM 71.1 °F 62.1 °F 73% 29.88 in 10.0 mi SE 12.7 mph - N/A   Clear
9:53 PM 70.0 °F 62.1 °F 76% 29.88 in 10.0 mi SSE 11.5 mph - N/A   Partly Cloudy
10:53 PM 68.0 °F 62.1 °F 81% 29.88 in 10.0 mi SSE 10.4 mph - N/A   Clear
11:53 PM 68.0 °F 62.1 °F 81% 29.88 in 10.0 mi SSE 11.5 mph - N/A   Scattered Clouds